Location: Ravensburg
(47.7866°N, 9.6124°E)
Time: 00:17:40
(UTC+01:00)

NOAA 18 - Visible Passes

Search period start: 14 March 2026 00:00
Search period end: 24 March 2026 00:00
Orbit: 836 x 858 km, 98.8° (Epoch: 13 March)

Date Brightness Start Highest point End Pass type
(mag) Time Alt. Az. Time Alt. Az. Time Alt. Az.
14 Mar 6.8 21:40:43 25° NNE 21:40:43 25° NNE 21:43:23 10° N visible
14 Mar 7.6 23:22:37 18° NW 23:22:37 18° NW 23:24:07 10° NNW visible
15 Mar 6.8 21:27:25 23° NNE 21:27:25 23° NNE 21:30:11 10° N visible
15 Mar 7.3 23:09:21 21° NNW 23:09:21 21° NNW 23:11:15 10° NNW visible
16 Mar 6.8 21:14:09 21° NE 21:14:09 21° NE 21:16:55 10° N visible
16 Mar 7.1 22:56:04 25° NNW 22:56:04 25° NNW 22:58:19 10° NNW visible
17 Mar 6.9 21:00:52 18° NE 21:00:52 18° NE 21:03:35 10° NNE visible
17 Mar 6.9 22:42:47 29° NNW 22:42:47 29° NNW 22:45:21 10° NNW visible
18 Mar 7.1 20:47:36 15° NE 20:47:36 15° NE 20:50:09 10° NNE visible
18 Mar 6.7 22:29:30 32° N 22:29:30 32° N 22:32:20 10° NNW visible
19 Mar 7.2 20:34:19 13° NE 20:34:19 13° NE 20:36:29 10° NNE visible
19 Mar 6.5 22:16:13 34° N 22:16:13 34° N 22:19:17 10° N visible
19 Mar 7.8 23:58:08 13° NW 23:58:08 13° NW 23:58:57 10° NW visible
20 Mar 6.4 22:02:57 34° NNE 22:02:57 34° NNE 22:06:12 10° N visible
20 Mar 7.6 23:44:51 16° NW 23:44:51 16° NW 23:46:18 10° NW visible
21 Mar 6.4 21:49:40 33° NNE 21:49:40 33° NNE 21:53:05 10° N visible
21 Mar 7.4 23:31:34 20° NW 23:31:34 20° NW 23:33:34 10° NNW visible
22 Mar 6.4 21:36:23 30° NE 21:36:23 30° NE 21:39:55 10° N visible
22 Mar 7.1 23:18:18 24° NW 23:18:18 24° NW 23:20:44 10° NNW visible
23 Mar 6.5 21:23:07 26° NE 21:23:07 26° NE 21:26:42 10° N visible
23 Mar 6.8 23:05:01 30° NW 23:05:01 30° NW 23:07:51 10° NNW visible
